Time,TemperatureF,DewpointF,PressureIn,WindDirection,WindDirectionDegrees,WindSpeedMPH,WindSpeedGustMPH,Humidity,HourlyPrecipIn,Conditions,Clouds,dailyrainin,SoftwareType,DateUTC
2013-07-20 00:04:00,79.0,70.8,30.00,SE,146,9.0,9.0,76,0.00,,SKC,0.00,VWS V14.01,2013-07-20 05:04:00,
2013-07-20 00:09:00,78.9,71.1,30.00,SE,145,4.0,9.0,77,0.00,,SKC,0.00,VWS V14.01,2013-07-20 05:09:00,
2013-07-20 00:14:00,78.7,70.9,30.00,SE,145,7.0,9.0,77,0.00,,SKC,0.00,VWS V14.01,2013-07-20 05:14:00,
2013-07-20 00:19:00,78.6,71.2,30.00,SE,142,5.0,11.0,78,0.00,,SKC,0.00,VWS V14.01,2013-07-20 05:19:00,
2013-07-20 00:24:00,78.5,71.4,30.00,SE,142,5.0,12.0,79,0.00,,SKC,0.00,VWS V14.01,2013-07-20 05:24:00,
2013-07-20 00:29:00,78.4,71.3,30.01,SE,142,2.0,12.0,79,0.00,,SKC,0.00,VWS V14.01,2013-07-20 05:29:00,
2013-07-20 00:34:00,78.3,71.6,30.00,SE,144,3.0,9.0,80,0.00,,SKC,0.00,VWS V14.01,2013-07-20 05:34:00,
2013-07-20 00:39:00,78.2,71.5,30.01,SE,144,6.0,9.0,80,0.00,,SKC,0.00,VWS V14.01,2013-07-20 05:39:00,
2013-07-20 00:44:00,78.1,71.4,30.00,SE,144,3.0,9.0,80,0.00,,SKC,0.00,VWS V14.01,2013-07-20 05:44:00,
2013-07-20 00:49:00,78.0,71.3,30.00,SE,144,0.0,9.0,80,0.00,,SKC,0.00,VWS V14.01,2013-07-20 05:49:00,
2013-07-20 00:54:00,77.9,71.6,30.01,SE,144,4.0,9.0,81,0.00,,SKC,0.00,VWS V14.01,2013-07-20 05:54:00,
2013-07-20 00:59:00,77.8,71.5,30.01,SE,144,7.0,9.0,81,0.00,,SKC,0.00,VWS V14.01,2013-07-20 05:59:00,
2013-07-20 01:04:00,77.8,71.5,30.01,SE,144,3.0,4.0,81,0.00,,SKC,0.00,VWS V14.01,2013-07-20 06:04:00,
2013-07-20 01:09:00,77.7,71.4,30.00,SE,144,6.0,6.0,81,0.00,,SKC,0.00,VWS V14.01,2013-07-20 06:09:00,
2013-07-20 01:14:00,77.5,71.6,30.00,SE,144,1.0,6.0,82,0.00,,SKC,0.00,VWS V14.01,2013-07-20 06:14:00,
2013-07-20 01:19:00,77.5,71.6,30.00,SE,144,1.0,6.0,82,0.00,,SKC,0.00,VWS V14.01,2013-07-20 06:19:00,
2013-07-20 01:24:00,77.3,71.4,30.00,SE,144,0.0,6.0,82,0.00,,SKC,0.00,VWS V14.01,2013-07-20 06:24:00,
2013-07-20 01:29:00,77.3,71.4,30.00,SE,144,1.0,6.0,82,0.00,,SKC,0.00,VWS V14.01,2013-07-20 06:29:00,
2013-07-20 01:34:00,77.2,71.6,30.00,SE,144,2.0,5.0,83,0.00,,SKC,0.00,VWS V14.01,2013-07-20 06:34:00,
2013-07-20 01:39:00,77.1,71.5,30.00,SE,144,2.0,5.0,83,0.00,,SKC,0.00,VWS V14.01,2013-07-20 06:39:00,
2013-07-20 01:44:00,77.0,71.4,30.00,SE,144,0.0,5.0,83,0.00,,SKC,0.00,VWS V14.01,2013-07-20 06:44:00,
2013-07-20 01:49:00,76.9,71.3,30.00,SE,144,0.0,5.0,83,0.00,,SKC,0.00,VWS V14.01,2013-07-20 06:49:00,
2013-07-20 01:54:00,76.8,71.2,29.99,SE,144,0.0,5.0,83,0.00,,SKC,0.00,VWS V14.01,2013-07-20 06:54:00,
2013-07-20 01:59:00,76.7,71.5,29.99,SE,144,0.0,5.0,84,0.00,,SKC,0.00,VWS V14.01,2013-07-20 06:59:00,
2013-07-20 02:04:00,76.6,71.4,29.99,SSE,148,4.0,7.0,84,0.00,,SKC,0.00,VWS V14.01,2013-07-20 07:04:00,
2013-07-20 02:09:00,76.5,71.3,29.99,SSE,148,1.0,7.0,84,0.00,,SKC,0.00,VWS V14.01,2013-07-20 07:09:00,
2013-07-20 02:14:00,76.4,71.2,29.98,SSE,148,0.0,7.0,84,0.00,,SKC,0.00,VWS V14.01,2013-07-20 07:14:00,
2013-07-20 02:19:00,76.4,71.6,29.98,SSE,149,0.0,9.0,85,0.00,,SKC,0.00,VWS V14.01,2013-07-20 07:19:00,
2013-07-20 02:24:00,76.4,71.6,29.98,SSE,149,0.0,9.0,85,0.00,,SKC,0.00,VWS V14.01,2013-07-20 07:24:00,
2013-07-20 02:29:00,76.3,71.5,29.98,SSE,155,0.0,9.0,85,0.00,,SKC,0.00,VWS V14.01,2013-07-20 07:29:00,
2013-07-20 02:34:00,76.2,71.4,29.98,SSE,155,0.0,4.0,85,0.00,,SKC,0.00,VWS V14.01,2013-07-20 07:34:00,
2013-07-20 02:39:00,76.2,71.4,29.98,SSE,155,0.0,4.0,85,0.00,,SKC,0.00,VWS V14.01,2013-07-20 07:39:00,
2013-07-20 02:44:00,76.2,71.4,29.97,SSE,155,0.0,5.0,85,0.00,,SKC,0.00,VWS V14.01,2013-07-20 07:44:00,
2013-07-20 02:49:00,76.1,71.6,29.97,SSE,155,0.0,5.0,86,0.00,,SKC,0.00,VWS V14.01,2013-07-20 07:49:00,
2013-07-20 02:54:00,76.1,71.6,29.97,SSE,155,2.0,5.0,86,0.00,,SKC,0.00,VWS V14.01,2013-07-20 07:54:00,
2013-07-20 02:59:00,76.0,71.5,29.97,SSE,156,0.0,5.0,86,0.00,,SKC,0.00,VWS V14.01,2013-07-20 07:59:00,
2013-07-20 03:04:00,76.0,71.5,29.97,SSE,156,0.0,1.0,86,0.00,,SKC,0.00,VWS V14.01,2013-07-20 08:04:00,
2013-07-20 03:09:00,75.9,71.4,29.97,SSE,156,0.0,3.0,86,0.00,,SKC,0.00,VWS V14.01,2013-07-20 08:09:00,
2013-07-20 03:14:00,75.8,71.3,29.97,SSE,156,0.0,3.0,86,0.00,,SKC,0.00,VWS V14.01,2013-07-20 08:14:00,
2013-07-20 03:19:00,75.7,71.6,29.97,SSE,156,0.0,3.0,87,0.00,,SKC,0.00,VWS V14.01,2013-07-20 08:19:00,
2013-07-20 03:24:00,75.7,71.6,29.96,SSE,156,0.0,3.0,87,0.00,,SKC,0.00,VWS V14.01,2013-07-20 08:24:00,
2013-07-20 03:29:00,75.6,71.5,29.97,SSE,156,0.0,3.0,87,0.00,,SKC,0.00,VWS V14.01,2013-07-20 08:29:00,
2013-07-20 03:34:00,75.6,71.5,29.97,SSE,156,0.0,0.0,87,0.00,,SKC,0.00,VWS V14.01,2013-07-20 08:34:00,
2013-07-20 03:39:00,75.5,71.4,29.97,SSE,156,0.0,0.0,87,0.00,,SKC,0.00,VWS V14.01,2013-07-20 08:39:00,
2013-07-20 03:44:00,75.3,71.2,29.97,SSE,156,0.0,0.0,87,0.00,,SKC,0.00,VWS V14.01,2013-07-20 08:44:00,
2013-07-20 03:49:00,75.3,71.2,29.97,SSE,156,0.0,0.0,87,0.00,,SKC,0.00,VWS V14.01,2013-07-20 08:49:00,
2013-07-20 03:54:00,75.1,71.0,29.97,SSE,156,0.0,0.0,87,0.00,,SKC,0.00,VWS V14.01,2013-07-20 08:54:00,
2013-07-20 03:59:00,75.1,71.0,29.96,SSE,156,0.0,0.0,87,0.00,,SKC,0.00,VWS V14.01,2013-07-20 08:59:00,
2013-07-20 04:04:00,74.9,70.8,29.96,SSE,156,0.0,0.0,87,0.00,,SKC,0.00,VWS V14.01,2013-07-20 09:04:00,
2013-07-20 04:09:00,74.8,70.7,29.96,SSE,156,0.0,0.0,87,0.00,,SKC,0.00,VWS V14.01,2013-07-20 09:09:00,
2013-07-20 04:14:00,74.7,70.6,29.96,SSE,156,0.0,0.0,87,0.00,,SKC,0.00,VWS V14.01,2013-07-20 09:14:00,
2013-07-20 04:19:00,74.6,70.5,29.96,SSE,156,0.0,0.0,87,0.00,,SKC,0.00,VWS V14.01,2013-07-20 09:19:00,
2013-07-20 04:24:00,74.5,70.7,29.96,SSE,156,0.0,0.0,88,0.00,,SKC,0.00,VWS V14.01,2013-07-20 09:24:00,
2013-07-20 04:29:00,74.5,70.7,29.96,SSE,156,0.0,0.0,88,0.00,,SKC,0.00,VWS V14.01,2013-07-20 09:29:00,
2013-07-20 04:34:00,74.4,70.6,29.96,SSE,156,0.0,0.0,88,0.00,,SKC,0.00,VWS V14.01,2013-07-20 09:34:00,
2013-07-20 04:39:00,74.4,70.6,29.96,SSE,156,0.0,0.0,88,0.00,,SKC,0.00,VWS V14.01,2013-07-20 09:39:00,
2013-07-20 04:44:00,74.3,70.8,29.95,SSE,156,0.0,0.0,89,0.00,,SKC,0.00,VWS V14.01,2013-07-20 09:44:00,
2013-07-20 04:49:00,74.2,70.8,29.95,SSE,156,0.0,0.0,89,0.00,,SKC,0.00,VWS V14.01,2013-07-20 09:49:00,
2013-07-20 04:54:00,74.2,70.8,29.96,SSE,156,0.0,0.0,89,0.00,,SKC,0.00,VWS V14.01,2013-07-20 09:54:00,
2013-07-20 04:59:00,74.1,70.7,29.95,SSE,156,0.0,0.0,89,0.00,,SKC,0.00,VWS V14.01,2013-07-20 09:59:00,
2013-07-20 05:04:00,74.0,70.6,29.96,SSE,156,0.0,0.0,89,0.00,,SKC,0.00,VWS V14.01,2013-07-20 10:04:00,
2013-07-20 05:09:00,74.0,70.6,29.96,SSE,156,0.0,0.0,89,0.00,,SKC,0.00,VWS V14.01,2013-07-20 10:09:00,
2013-07-20 05:14:00,74.0,70.9,29.96,SSE,156,0.0,0.0,90,0.00,,SKC,0.00,VWS V14.01,2013-07-20 10:14:00,
2013-07-20 05:19:00,74.0,70.9,29.96,SSE,156,0.0,0.0,90,0.00,,SKC,0.00,VWS V14.01,2013-07-20 10:19:00,
2013-07-20 05:24:00,74.0,70.9,29.96,SSE,156,0.0,0.0,90,0.00,,SKC,0.00,VWS V14.01,2013-07-20 10:24:00,
2013-07-20 05:29:00,73.9,70.8,29.96,SSE,156,0.0,0.0,90,0.00,,SKC,0.00,VWS V14.01,2013-07-20 10:29:00,
2013-07-20 05:34:00,73.9,70.8,29.96,SSE,156,0.0,0.0,90,0.00,,SKC,0.00,VWS V14.01,2013-07-20 10:34:00,
2013-07-20 05:39:00,73.9,70.8,29.96,SSE,156,0.0,1.0,90,0.00,,SKC,0.00,VWS V14.01,2013-07-20 10:39:00,
2013-07-20 05:44:00,73.9,70.8,29.96,SSE,156,0.0,1.0,90,0.00,,SKC,0.00,VWS V14.01,2013-07-20 10:44:00,
2013-07-20 05:49:00,73.9,71.1,29.96,SSE,156,0.0,1.0,91,0.00,,SKC,0.00,VWS V14.01,2013-07-20 10:49:00,
2013-07-20 05:54:00,73.9,71.1,29.96,SSE,156,0.0,1.0,91,0.00,,SKC,0.00,VWS V14.01,2013-07-20 10:54:00,
2013-07-20 05:59:00,73.9,71.1,29.96,SSE,156,0.0,1.0,91,0.00,,SKC,0.00,VWS V14.01,2013-07-20 10:59:00,
2013-07-20 06:04:00,73.9,71.1,29.96,SSE,156,0.0,0.0,91,0.00,,SKC,0.00,VWS V14.01,2013-07-20 11:04:00,
2013-07-20 06:09:00,73.9,71.1,29.96,SSE,156,0.0,0.0,91,0.00,,SKC,0.00,VWS V14.01,2013-07-20 11:09:00,
2013-07-20 06:14:00,73.9,71.1,29.97,SSE,156,0.0,0.0,91,0.00,,SKC,0.00,VWS V14.01,2013-07-20 11:14:00,
2013-07-20 06:19:00,73.9,71.1,29.97,SSE,156,0.0,0.0,91,0.00,,SKC,0.00,VWS V14.01,2013-07-20 11:19:00,
2013-07-20 06:24:00,73.8,71.0,29.97,SSE,156,0.0,0.0,91,0.00,,SKC,0.00,VWS V14.01,2013-07-20 11:24:00,
2013-07-20 06:29:00,73.7,70.9,29.97,SSE,156,0.0,1.0,91,0.00,,SKC,0.00,VWS V14.01,2013-07-20 11:29:00,
2013-07-20 06:34:00,73.7,70.9,29.97,SSE,156,0.0,0.0,91,0.00,,SKC,0.00,VWS V14.01,2013-07-20 11:34:00,
2013-07-20 06:39:00,73.7,70.9,29.97,SSE,156,0.0,0.0,91,0.00,,SKC,0.00,VWS V14.01,2013-07-20 11:39:00,
2013-07-20 06:44:00,73.6,70.8,29.97,SSE,156,0.0,0.0,91,0.00,,SKC,0.00,VWS V14.01,2013-07-20 11:44:00,
2013-07-20 06:48:00,73.6,70.8,29.97,SSE,156,0.0,0.0,91,0.00,,SKC,0.00,VWS V14.01,2013-07-20 11:48:00,
2013-07-20 06:53:00,73.5,70.7,29.97,SSE,156,0.0,0.0,91,0.00,,SKC,0.00,VWS V14.01,2013-07-20 11:53:00,
2013-07-20 06:58:00,73.5,70.7,29.97,SSE,156,0.0,0.0,91,0.00,,SKC,0.00,VWS V14.01,2013-07-20 11:58:00,
2013-07-20 07:03:00,73.4,70.6,29.97,SSE,156,0.0,0.0,91,0.00,,SKC,0.00,VWS V14.01,2013-07-20 12:03:00,
2013-07-20 07:08:00,73.3,70.5,29.97,SSE,156,0.0,0.0,91,0.00,,SKC,0.00,VWS V14.01,2013-07-20 12:08:00,
2013-07-20 07:13:00,73.3,70.5,29.97,SSE,156,0.0,0.0,91,0.00,,SKC,0.00,VWS V14.01,2013-07-20 12:13:00,
2013-07-20 07:18:00,73.3,70.5,29.97,SSE,156,0.0,0.0,91,0.00,,SKC,0.00,VWS V14.01,2013-07-20 12:18:00,
2013-07-20 07:23:00,73.3,70.8,29.97,SSE,156,0.0,0.0,92,0.00,,SKC,0.00,VWS V14.01,2013-07-20 12:23:00,
2013-07-20 07:28:00,73.4,70.9,29.97,SSE,156,0.0,0.0,92,0.00,,SKC,0.00,VWS V14.01,2013-07-20 12:28:00,
2013-07-20 07:33:00,73.5,71.0,29.97,SSE,156,1.0,1.0,92,0.00,,SKC,0.00,VWS V14.01,2013-07-20 12:33:00,
2013-07-20 07:38:00,73.6,71.1,29.98,SSE,156,0.0,1.0,92,0.00,,SKC,0.00,VWS V14.01,2013-07-20 12:38:00,
2013-07-20 07:43:00,73.7,71.2,29.98,SSE,156,0.0,1.0,92,0.00,,SKC,0.00,VWS V14.01,2013-07-20 12:43:00,
2013-07-20 07:48:00,73.9,71.8,29.98,SSE,156,0.0,1.0,93,0.00,,SKC,0.00,VWS V14.01,2013-07-20 12:48:00,
2013-07-20 07:53:00,74.2,72.1,29.98,SSE,156,0.0,4.0,93,0.00,,SKC,0.00,VWS V14.01,2013-07-20 12:53:00,
2013-07-20 07:58:00,74.5,72.3,29.98,SSE,156,2.0,4.0,93,0.00,,SKC,0.00,VWS V14.01,2013-07-20 12:58:00,
2013-07-20 08:03:00,74.7,72.6,29.98,SSE,156,0.0,0.0,93,0.00,,SKC,0.00,VWS V14.01,2013-07-20 13:03:00,
2013-07-20 08:08:00,75.0,72.8,29.98,SSE,156,0.0,1.0,93,0.00,,SKC,0.00,VWS V14.01,2013-07-20 13:08:00,
2013-07-20 08:13:00,75.3,73.1,29.98,SSE,156,0.0,1.0,93,0.00,,SKC,0.00,VWS V14.01,2013-07-20 13:13:00,
2013-07-20 08:18:00,75.5,73.0,29.98,SSE,156,3.0,5.0,92,0.00,,SKC,0.00,VWS V14.01,2013-07-20 13:18:00,
2013-07-20 08:23:00,75.8,73.3,29.98,SSE,156,4.0,6.0,92,0.00,,SKC,0.00,VWS V14.01,2013-07-20 13:23:00,
2013-07-20 08:28:00,76.0,73.2,29.98,SSE,156,1.0,6.0,91,0.00,,SKC,0.00,VWS V14.01,2013-07-20 13:28:00,
2013-07-20 08:33:00,76.4,73.6,29.98,SSE,157,5.0,6.0,91,0.00,,SKC,0.00,VWS V14.01,2013-07-20 13:33:00,
2013-07-20 08:38:00,76.8,73.3,29.98,SSE,157,2.0,6.0,89,0.00,,SKC,0.00,VWS V14.01,2013-07-20 13:38:00,
2013-07-20 08:43:00,77.0,73.2,29.98,SSE,157,2.0,7.0,88,0.00,,SKC,0.00,VWS V14.01,2013-07-20 13:43:00,
2013-07-20 08:48:00,77.3,73.1,29.99,SSE,157,0.0,7.0,87,0.00,,SKC,0.00,VWS V14.01,2013-07-20 13:48:00,
2013-07-20 08:53:00,77.7,73.5,29.98,SSE,159,2.0,7.0,87,0.00,,SKC,0.00,VWS V14.01,2013-07-20 13:53:00,
2013-07-20 08:58:00,77.9,73.0,29.98,South,191,6.0,7.0,85,0.00,,SKC,0.00,VWS V14.01,2013-07-20 13:58:00,
2013-07-20 09:03:00,78.0,72.8,29.99,SSW,198,2.0,5.0,84,0.00,,SKC,0.00,VWS V14.01,2013-07-20 14:03:00,
2013-07-20 09:08:00,78.0,72.8,29.99,SSW,198,0.0,7.0,84,0.00,,SKC,0.00,VWS V14.01,2013-07-20 14:08:00,
2013-07-20 09:13:00,78.3,73.1,29.98,SSW,198,0.0,7.0,84,0.00,,SKC,0.00,VWS V14.01,2013-07-20 14:13:00,
2013-07-20 09:18:00,78.7,73.1,29.98,SSW,198,0.0,7.0,83,0.00,,SKC,0.00,VWS V14.01,2013-07-20 14:18:00,
2013-07-20 09:23:00,79.1,73.1,29.98,South,189,6.0,10.0,82,0.00,,SKC,0.00,VWS V14.01,2013-07-20 14:23:00,
2013-07-20 09:28:00,79.6,72.9,29.98,SSW,202,4.0,10.0,80,0.00,,SKC,0.00,VWS V14.01,2013-07-20 14:28:00,
2013-07-20 09:33:00,80.0,72.9,29.98,SSW,211,5.0,9.0,79,0.00,,SKC,0.00,VWS V14.01,2013-07-20 14:33:00,
2013-07-20 09:38:00,80.3,73.2,29.98,SSE,148,5.0,11.0,79,0.00,,SKC,0.00,VWS V14.01,2013-07-20 14:38:00,
2013-07-20 09:43:00,80.6,73.1,29.98,SE,146,4.0,11.0,78,0.00,,SKC,0.00,VWS V14.01,2013-07-20 14:43:00,
2013-07-20 09:48:00,80.9,73.0,29.98,SSE,150,3.0,11.0,77,0.00,,SKC,0.00,VWS V14.01,2013-07-20 14:48:00,
2013-07-20 09:53:00,81.2,72.5,29.97,SSE,148,3.0,11.0,75,0.00,,SKC,0.00,VWS V14.01,2013-07-20 14:53:00,
2013-07-20 09:58:00,81.6,72.9,29.97,SSE,148,3.0,11.0,75,0.00,,SKC,0.00,VWS V14.01,2013-07-20 14:58:00,
2013-07-20 10:03:00,81.9,72.8,29.97,SSE,148,4.0,6.0,74,0.00,,SKC,0.00,VWS V14.01,2013-07-20 15:03:00,
2013-07-20 10:08:00,82.1,73.0,29.97,SSE,148,1.0,7.0,74,0.00,,SKC,0.00,VWS V14.01,2013-07-20 15:08:00,
2013-07-20 10:13:00,82.5,73.4,29.98,SSE,148,3.0,7.0,74,0.00,,SKC,0.00,VWS V14.01,2013-07-20 15:13:00,
2013-07-20 10:18:00,82.9,73.4,29.97,SSE,148,0.0,7.0,73,0.00,,SKC,0.00,VWS V14.01,2013-07-20 15:18:00,
2013-07-20 10:23:00,83.3,72.5,29.97,South,173,1.0,7.0,70,0.00,,SKC,0.00,VWS V14.01,2013-07-20 15:23:00,
2013-07-20 10:28:00,83.2,72.0,29.97,SSW,192,3.0,7.0,69,0.00,,SKC,0.00,VWS V14.01,2013-07-20 15:28:00,
2013-07-20 10:33:00,83.1,72.3,29.97,SSW,200,3.0,6.0,70,0.00,,SKC,0.00,VWS V14.01,2013-07-20 15:33:00,
2013-07-20 10:38:00,82.9,71.7,29.97,SSW,204,5.0,10.0,69,0.00,,SKC,0.00,VWS V14.01,2013-07-20 15:38:00,
2013-07-20 10:43:00,82.7,71.9,29.97,SSW,203,5.0,10.0,70,0.00,,SKC,0.00,VWS V14.01,2013-07-20 15:43:00,
2013-07-20 10:48:00,82.7,71.9,29.97,SSW,196,3.0,10.0,70,0.00,,SKC,0.00,VWS V14.01,2013-07-20 15:48:00,
2013-07-20 10:53:00,83.0,71.4,29.97,SSW,203,2.0,10.0,68,0.00,,SKC,0.00,VWS V14.01,2013-07-20 15:53:00,
2013-07-20 10:58:00,83.2,72.0,29.97,SSW,205,6.0,10.0,69,0.00,,SKC,0.00,VWS V14.01,2013-07-20 15:58:00,
2013-07-20 11:03:00,83.1,71.9,29.97,SSW,210,5.0,6.0,69,0.00,,SKC,0.00,VWS V14.01,2013-07-20 16:03:00,
2013-07-20 11:08:00,82.9,71.7,29.97,SSW,211,3.0,6.0,69,0.00,,SKC,0.00,VWS V14.01,2013-07-20 16:08:00,
2013-07-20 11:13:00,83.0,71.4,29.97,SSW,213,6.0,7.0,68,0.00,,SKC,0.00,VWS V14.01,2013-07-20 16:13:00,
2013-07-20 11:18:00,83.3,71.2,29.97,SSW,213,2.0,7.0,67,0.00,,SKC,0.00,VWS V14.01,2013-07-20 16:18:00,
2013-07-20 11:23:00,83.9,70.9,29.97,SSW,207,5.0,9.0,65,0.00,,SKC,0.00,VWS V14.01,2013-07-20 16:23:00,
2013-07-20 11:28:00,84.6,69.7,29.97,SSW,199,4.0,10.0,61,0.00,,SKC,0.00,VWS V14.01,2013-07-20 16:28:00,
2013-07-20 11:33:00,85.2,70.2,29.96,SSW,198,3.0,9.0,61,0.00,,SKC,0.00,VWS V14.01,2013-07-20 16:33:00,
2013-07-20 11:38:00,85.7,70.2,29.97,South,178,3.0,10.0,60,0.00,,SKC,0.00,VWS V14.01,2013-07-20 16:38:00,
2013-07-20 11:43:00,85.7,69.2,29.96,SSW,207,10.0,11.0,58,0.00,,SKC,0.00,VWS V14.01,2013-07-20 16:43:00,
2013-07-20 11:48:00,85.8,70.8,29.96,SSW,200,1.0,11.0,61,0.00,,SKC,0.00,VWS V14.01,2013-07-20 16:48:00,
2013-07-20 11:53:00,85.9,71.4,29.96,SSW,194,4.0,11.0,62,0.00,,SKC,0.00,VWS V14.01,2013-07-20 16:53:00,
2013-07-20 11:58:00,86.0,70.5,29.96,SSW,194,0.0,11.0,60,0.00,,SKC,0.00,VWS V14.01,2013-07-20 16:58:00,
2013-07-20 12:00:00,86.1,70.6,29.96,SSW,194,0.0,11.0,60,0.00,,SKC,0.00,VWS V14.01,2013-07-20 17:00:00,
2013-07-20 12:04:00,86.1,70.6,29.96,SSW,194,3.0,5.0,60,0.00,,SKC,0.00,VWS V14.01,2013-07-20 17:04:00,
2013-07-20 12:09:00,86.7,71.7,29.96,SSW,194,0.0,5.0,61,0.00,,SKC,0.00,VWS V14.01,2013-07-20 17:09:00,
2013-07-20 12:14:00,87.3,70.7,29.96,SSW,192,5.0,6.0,58,0.00,,SKC,0.00,VWS V14.01,2013-07-20 17:14:00,
2013-07-20 12:19:00,88.0,71.4,29.95,South,188,7.0,10.0,58,0.00,,SKC,0.00,VWS V14.01,2013-07-20 17:19:00,
2013-07-20 12:24:00,88.5,69.8,29.95,SSE,157,7.0,11.0,54,0.00,,SKC,0.00,VWS V14.01,2013-07-20 17:24:00,
2013-07-20 12:29:00,88.7,71.0,29.95,SSE,157,1.0,11.0,56,0.00,,SKC,0.00,VWS V14.01,2013-07-20 17:29:00,
2013-07-20 12:34:00,89.1,71.4,29.95,SSE,155,1.0,6.0,56,0.00,,SKC,0.00,VWS V14.01,2013-07-20 17:34:00,
2013-07-20 12:39:00,89.4,71.1,29.95,SSE,153,0.0,10.0,55,0.00,,SKC,0.00,VWS V14.01,2013-07-20 17:39:00,
2013-07-20 12:44:00,89.4,71.1,29.95,SSE,150,0.0,10.0,55,0.00,,SKC,0.00,VWS V14.01,2013-07-20 17:44:00,
2013-07-20 12:49:00,89.4,71.1,29.94,SSE,153,4.0,10.0,55,0.00,,SKC,0.00,VWS V14.01,2013-07-20 17:49:00,
2013-07-20 12:54:00,89.4,71.1,29.94,South,185,4.0,12.0,55,0.00,,SKC,0.00,VWS V14.01,2013-07-20 17:54:00,
2013-07-20 12:59:00,89.7,71.4,29.95,South,185,3.0,12.0,55,0.00,,SKC,0.00,VWS V14.01,2013-07-20 17:59:00,
2013-07-20 13:04:00,89.7,70.9,29.94,South,184,0.0,0.0,54,0.00,,SKC,0.00,VWS V14.01,2013-07-20 18:04:00,
2013-07-20 13:09:00,89.7,70.9,29.94,South,185,5.0,7.0,54,0.00,,SKC,0.00,VWS V14.01,2013-07-20 18:09:00,
2013-07-20 13:14:00,89.7,71.9,29.94,South,190,1.0,9.0,56,0.00,,SKC,0.00,VWS V14.01,2013-07-20 18:14:00,
2013-07-20 13:19:00,90.0,71.1,29.93,South,190,4.0,9.0,54,0.00,,SKC,0.00,VWS V14.01,2013-07-20 18:19:00,
2013-07-20 13:24:00,90.6,71.7,29.93,South,184,3.0,9.0,54,0.00,,SKC,0.00,VWS V14.01,2013-07-20 18:24:00,
2013-07-20 13:29:00,90.3,70.9,29.93,South,188,3.0,9.0,53,0.00,,SKC,0.00,VWS V14.01,2013-07-20 18:29:00,
2013-07-20 13:34:00,90.4,71.5,29.93,SSW,194,5.0,6.0,54,0.00,,SKC,0.00,VWS V14.01,2013-07-20 18:34:00,
2013-07-20 13:39:00,90.5,70.5,29.93,South,183,4.0,7.0,52,0.00,,SKC,0.00,VWS V14.01,2013-07-20 18:39:00,
2013-07-20 13:44:00,90.6,70.6,29.93,South,180,3.0,7.0,52,0.00,,SKC,0.00,VWS V14.01,2013-07-20 18:44:00,
2013-07-20 13:49:00,90.6,70.6,29.92,South,180,3.0,7.0,52,0.00,,SKC,0.00,VWS V14.01,2013-07-20 18:49:00,
2013-07-20 13:54:00,90.7,70.7,29.93,South,180,1.0,7.0,52,0.00,,SKC,0.00,VWS V14.01,2013-07-20 18:54:00,
2013-07-20 13:59:00,90.8,69.6,29.93,South,179,8.0,12.0,50,0.00,,SKC,0.00,VWS V14.01,2013-07-20 18:59:00,
2013-07-20 14:04:00,90.5,69.9,29.93,SSW,194,3.0,7.0,51,0.00,,SKC,0.00,VWS V14.01,2013-07-20 19:04:00,
2013-07-20 14:09:00,90.1,69.6,29.93,SSW,193,2.0,7.0,51,0.00,,SKC,0.00,VWS V14.01,2013-07-20 19:09:00,
2013-07-20 14:14:00,89.8,69.8,29.93,SSW,193,0.0,7.0,52,0.00,,SKC,0.00,VWS V14.01,2013-07-20 19:14:00,
2013-07-20 14:19:00,89.7,69.2,29.92,SSW,196,4.0,11.0,51,0.00,,SKC,0.00,VWS V14.01,2013-07-20 19:19:00,
2013-07-20 14:24:00,89.8,68.7,29.92,South,186,0.0,11.0,50,0.00,,SKC,0.00,VWS V14.01,2013-07-20 19:24:00,
2013-07-20 14:29:00,89.9,69.4,29.92,South,186,4.0,11.0,51,0.00,,SKC,0.00,VWS V14.01,2013-07-20 19:29:00,
2013-07-20 14:34:00,90.0,70.0,29.91,South,186,3.0,4.0,52,0.00,,SKC,0.00,VWS V14.01,2013-07-20 19:34:00,
2013-07-20 14:39:00,90.3,69.2,29.91,South,185,2.0,6.0,50,0.00,,SKC,0.00,VWS V14.01,2013-07-20 19:39:00,
2013-07-20 14:44:00,90.6,69.4,29.91,South,190,0.0,11.0,50,0.00,,SKC,0.00,VWS V14.01,2013-07-20 19:44:00,
2013-07-20 14:49:00,90.9,69.1,29.91,SSE,154,4.0,12.0,49,0.00,,SKC,0.00,VWS V14.01,2013-07-20 19:49:00,
2013-07-20 14:54:00,91.1,68.1,29.91,ESE,119,0.0,12.0,47,0.00,,SKC,0.00,VWS V14.01,2013-07-20 19:54:00,
2013-07-20 15:00:00,91.0,69.8,29.90,SE,130,4.0,12.0,50,0.00,,SKC,0.00,VWS V14.01,2013-07-20 20:00:00,
2013-07-20 15:05:00,91.0,68.6,29.90,SE,131,2.0,4.0,48,0.00,,SKC,0.00,VWS V14.01,2013-07-20 20:05:00,
2013-07-20 15:10:00,91.0,68.6,29.90,SE,140,2.0,7.0,48,0.00,,SKC,0.00,VWS V14.01,2013-07-20 20:10:00,
2013-07-20 15:15:00,91.3,68.9,29.90,SSE,163,3.0,9.0,48,0.00,,SKC,0.00,VWS V14.01,2013-07-20 20:15:00,
2013-07-20 15:20:00,91.5,69.1,29.90,SSE,159,2.0,10.0,48,0.00,,SKC,0.00,VWS V14.01,2013-07-20 20:20:00,
2013-07-20 15:25:00,91.8,69.3,29.90,SSE,155,5.0,10.0,48,0.00,,SKC,0.00,VWS V14.01,2013-07-20 20:25:00,
2013-07-20 15:30:00,91.9,69.4,29.90,SSE,155,0.0,10.0,48,0.00,,SKC,0.00,VWS V14.01,2013-07-20 20:30:00,
2013-07-20 15:35:00,91.9,68.8,29.90,SSE,155,0.0,3.0,47,0.00,,SKC,0.00,VWS V14.01,2013-07-20 20:35:00,
2013-07-20 15:40:00,91.9,70.0,29.89,SSE,152,5.0,13.0,49,0.00,,SKC,0.00,VWS V14.01,2013-07-20 20:40:00,
2013-07-20 15:45:00,92.0,68.9,29.89,SSE,151,6.0,13.0,47,0.00,,SKC,0.00,VWS V14.01,2013-07-20 20:45:00,
2013-07-20 15:50:00,91.8,69.3,29.89,SSE,148,4.0,13.0,48,0.00,,SKC,0.00,VWS V14.01,2013-07-20 20:50:00,
2013-07-20 15:55:00,91.6,68.5,29.89,SSE,153,1.0,13.0,47,0.00,,SKC,0.00,VWS V14.01,2013-07-20 20:55:00,
2013-07-20 16:00:00,91.6,69.2,29.89,SSE,154,3.0,13.0,48,0.00,,SKC,0.00,VWS V14.01,2013-07-20 21:00:00,
2013-07-20 16:05:00,91.8,69.3,29.88,SSE,163,3.0,7.0,48,0.00,,SKC,0.00,VWS V14.01,2013-07-20 21:05:00,
2013-07-20 16:11:00,92.1,70.2,29.88,South,171,0.0,9.0,49,0.00,,SKC,0.00,VWS V14.01,2013-07-20 21:11:00,
2013-07-20 16:16:00,92.2,69.1,29.88,South,175,5.0,9.0,47,0.00,,SKC,0.00,VWS V14.01,2013-07-20 21:16:00,
2013-07-20 16:21:00,92.3,69.8,29.88,SSE,167,4.0,9.0,48,0.00,,SKC,0.00,VWS V14.01,2013-07-20 21:21:00,
2013-07-20 16:26:00,92.4,68.6,29.88,South,173,2.0,9.0,46,0.00,,SKC,0.00,VWS V14.01,2013-07-20 21:26:00,
2013-07-20 16:31:00,92.4,68.6,29.87,South,182,5.0,10.0,46,0.00,,SKC,0.00,VWS V14.01,2013-07-20 21:31:00,
2013-07-20 16:36:00,92.6,68.8,29.87,South,182,3.0,5.0,46,0.00,,SKC,0.00,VWS V14.01,2013-07-20 21:36:00,
2013-07-20 16:41:00,92.9,69.1,29.87,South,180,0.0,5.0,46,0.00,,SKC,0.00,VWS V14.01,2013-07-20 21:41:00,
2013-07-20 16:46:00,93.3,68.8,29.87,South,181,1.0,6.0,45,0.00,,SKC,0.00,VWS V14.01,2013-07-20 21:46:00,
2013-07-20 16:51:00,93.5,69.0,29.87,SSE,160,3.0,11.0,45,0.00,,SKC,0.00,VWS V14.01,2013-07-20 21:51:00,
2013-07-20 16:56:00,93.4,68.2,29.87,SSE,155,3.0,11.0,44,0.00,,SKC,0.00,VWS V14.01,2013-07-20 21:56:00,
2013-07-20 17:01:00,93.2,68.7,29.87,SSE,154,4.0,11.0,45,0.00,,SKC,0.00,VWS V14.01,2013-07-20 22:01:00,
2013-07-20 17:07:00,93.1,69.3,29.86,SSE,157,5.0,8.0,46,0.00,,SKC,0.00,VWS V14.01,2013-07-20 22:07:00,
2013-07-20 17:12:00,93.2,68.7,29.86,SSE,155,3.0,10.0,45,0.00,,SKC,0.00,VWS V14.01,2013-07-20 22:12:00,
2013-07-20 17:17:00,93.3,70.1,29.86,SSE,159,0.0,10.0,47,0.00,,SKC,0.00,VWS V14.01,2013-07-20 22:17:00,
2013-07-20 17:22:00,93.4,68.9,29.86,SSE,152,2.0,10.0,45,0.00,,SKC,0.00,VWS V14.01,2013-07-20 22:22:00,
2013-07-20 17:27:00,93.4,68.9,29.86,SE,144,6.0,10.0,45,0.00,,SKC,0.00,VWS V14.01,2013-07-20 22:27:00,
2013-07-20 17:33:00,93.2,68.7,29.86,SE,128,0.0,7.0,45,0.00,,SKC,0.00,VWS V14.01,2013-07-20 22:33:00,
2013-07-20 17:38:00,93.1,68.0,29.86,SE,134,3.0,7.0,44,0.00,,SKC,0.00,VWS V14.01,2013-07-20 22:38:00,
2013-07-20 17:43:00,92.8,67.7,29.86,SE,141,2.0,10.0,44,0.00,,SKC,0.00,VWS V14.01,2013-07-20 22:43:00,
2013-07-20 17:48:00,92.6,68.2,29.85,SE,141,0.0,10.0,45,0.00,,SKC,0.00,VWS V14.01,2013-07-20 22:48:00,
2013-07-20 17:53:00,92.6,67.5,29.85,SE,141,2.0,10.0,44,0.00,,SKC,0.00,VWS V14.01,2013-07-20 22:53:00,
2013-07-20 17:58:00,92.6,68.2,29.85,SE,136,0.0,10.0,45,0.00,,SKC,0.00,VWS V14.01,2013-07-20 22:58:00,
2013-07-20 18:03:00,92.6,68.2,29.85,SE,136,0.0,2.0,45,0.00,,SKC,0.00,VWS V14.01,2013-07-20 23:03:00,
2013-07-20 18:08:00,92.5,68.1,29.84,SE,136,1.0,4.0,45,0.00,,SKC,0.00,VWS V14.01,2013-07-20 23:08:00,
2013-07-20 18:13:00,92.4,68.6,29.84,SE,136,0.0,4.0,46,0.00,,SKC,0.00,VWS V14.01,2013-07-20 23:13:00,
2013-07-20 18:18:00,92.5,68.1,29.84,SE,136,2.0,5.0,45,0.00,,SKC,0.00,VWS V14.01,2013-07-20 23:18:00,
2013-07-20 18:24:00,92.4,68.6,29.84,SE,138,3.0,7.0,46,0.00,,SKC,0.00,VWS V14.01,2013-07-20 23:24:00,
2013-07-20 18:29:00,92.3,67.9,29.84,SE,140,0.0,11.0,45,0.00,,SKC,0.00,VWS V14.01,2013-07-20 23:29:00,
2013-07-20 18:34:00,92.1,68.4,29.84,SE,140,0.0,5.0,46,0.00,,SKC,0.00,VWS V14.01,2013-07-20 23:34:00,
2013-07-20 18:39:00,91.9,68.2,29.84,SE,140,3.0,5.0,46,0.00,,SKC,0.00,VWS V14.01,2013-07-20 23:39:00,
2013-07-20 18:44:00,91.8,68.1,29.84,SSE,152,0.0,7.0,46,0.00,,SKC,0.00,VWS V14.01,2013-07-20 23:44:00,
2013-07-20 18:49:00,91.7,68.0,29.84,SSE,152,0.0,7.0,46,0.00,,SKC,0.00,VWS V14.01,2013-07-20 23:49:00,
2013-07-20 18:54:00,91.6,67.9,29.84,SE,144,2.0,11.0,46,0.00,,SKC,0.00,VWS V14.01,2013-07-20 23:54:00,
2013-07-20 18:59:00,91.5,67.8,29.85,SE,144,0.0,11.0,46,0.00,,SKC,0.00,VWS V14.01,2013-07-20 23:59:00,
2013-07-20 19:04:00,91.4,67.7,29.85,SE,144,4.0,12.0,46,0.00,,SKC,0.00,VWS V14.01,2013-07-21 00:04:00,
2013-07-20 19:09:00,91.2,67.6,29.85,SE,144,4.0,12.0,46,0.00,,SKC,0.00,VWS V14.01,2013-07-21 00:09:00,
2013-07-20 19:15:00,91.1,68.1,29.85,SE,144,0.0,12.0,47,0.00,,SKC,0.00,VWS V14.01,2013-07-21 00:15:00,
2013-07-20 19:20:00,91.0,68.0,29.84,SE,144,1.0,12.0,47,0.00,,SKC,0.00,VWS V14.01,2013-07-21 00:20:00,
2013-07-20 19:25:00,90.9,68.5,29.85,SE,144,5.0,12.0,48,0.00,,SKC,0.00,VWS V14.01,2013-07-21 00:25:00,
2013-07-20 19:30:00,90.8,67.8,29.85,SSE,149,4.0,14.0,47,0.00,,SKC,0.00,VWS V14.01,2013-07-21 00:30:00,
2013-07-20 19:35:00,90.3,70.3,29.85,SSE,156,11.0,14.0,52,0.00,,SKC,0.00,VWS V14.01,2013-07-21 00:35:00,
2013-07-20 19:40:00,89.7,70.9,29.85,SSE,156,5.0,18.0,54,0.00,,SKC,0.00,VWS V14.01,2013-07-21 00:40:00,
2013-07-20 19:45:00,89.3,70.5,29.85,SSE,150,5.0,18.0,54,0.00,,SKC,0.00,VWS V14.01,2013-07-21 00:45:00,
2013-07-20 19:50:00,88.8,70.0,29.85,SE,143,11.0,18.0,54,0.00,,SKC,0.00,VWS V14.01,2013-07-21 00:50:00,
2013-07-20 19:55:00,88.4,70.2,29.85,SSE,150,3.0,18.0,55,0.00,,SKC,0.00,VWS V14.01,2013-07-21 00:55:00,
2013-07-20 20:01:00,88.1,70.4,29.85,SE,136,4.0,18.0,56,0.00,,SKC,0.00,VWS V14.01,2013-07-21 01:01:00,
2013-07-20 20:06:00,87.7,70.6,29.85,SE,136,6.0,10.0,57,0.00,,SKC,0.00,VWS V14.01,2013-07-21 01:06:00,
2013-07-20 20:11:00,87.4,70.3,29.85,SE,141,3.0,14.0,57,0.00,,SKC,0.00,VWS V14.01,2013-07-21 01:11:00,
2013-07-20 20:16:00,87.0,70.4,29.85,SE,133,11.0,14.0,58,0.00,,SKC,0.00,VWS V14.01,2013-07-21 01:16:00,
2013-07-20 20:21:00,86.7,70.7,29.85,SE,143,7.0,14.0,59,0.00,,SKC,0.00,VWS V14.01,2013-07-21 01:21:00,
2013-07-20 20:26:00,86.5,71.0,29.85,SE,144,6.0,14.0,60,0.00,,SKC,0.00,VWS V14.01,2013-07-21 01:26:00,
2013-07-20 20:31:00,86.2,70.7,29.85,SE,144,4.0,14.0,60,0.00,,SKC,0.00,VWS V14.01,2013-07-21 01:31:00,
2013-07-20 20:36:00,86.0,71.0,29.86,SE,144,0.0,7.0,61,0.00,,SKC,0.00,VWS V14.01,2013-07-21 01:36:00,
2013-07-20 20:41:00,85.7,70.7,29.86,SE,144,4.0,10.0,61,0.00,,SKC,0.00,VWS V14.01,2013-07-21 01:41:00,
2013-07-20 20:46:00,85.5,71.0,29.86,SE,144,4.0,10.0,62,0.00,,SKC,0.00,VWS V14.01,2013-07-21 01:46:00,
2013-07-20 20:52:00,85.3,70.8,29.86,SE,143,5.0,10.0,62,0.00,,SKC,0.00,VWS V14.01,2013-07-21 01:52:00,
2013-07-20 20:57:00,85.1,71.1,29.87,SE,141,4.0,10.0,63,0.00,,SKC,0.00,VWS V14.01,2013-07-21 01:57:00,
2013-07-20 21:02:00,84.9,70.9,29.87,SE,143,6.0,6.0,63,0.00,,SKC,0.00,VWS V14.01,2013-07-21 02:02:00,
2013-07-20 21:07:00,84.8,70.8,29.87,SE,143,2.0,7.0,63,0.00,,SKC,0.00,VWS V14.01,2013-07-21 02:07:00,
2013-07-20 21:12:00,84.6,70.6,29.87,SE,144,1.0,7.0,63,0.00,,SKC,0.00,VWS V14.01,2013-07-21 02:12:00,
2013-07-20 21:17:00,84.5,71.0,29.88,SE,144,2.0,7.0,64,0.00,,SKC,0.00,VWS V14.01,2013-07-21 02:17:00,
2013-07-20 21:22:00,84.3,70.8,29.88,SE,144,4.0,7.0,64,0.00,,SKC,0.00,VWS V14.01,2013-07-21 02:22:00,
2013-07-20 21:27:00,84.1,70.6,29.88,SE,145,0.0,7.0,64,0.00,,SKC,0.00,VWS V14.01,2013-07-21 02:27:00,
2013-07-20 21:32:00,84.0,70.5,29.88,SE,145,0.0,0.0,64,0.00,,SKC,0.00,VWS V14.01,2013-07-21 02:32:00,
2013-07-20 21:37:00,83.8,70.3,29.88,SE,145,0.0,3.0,64,0.00,,SKC,0.00,VWS V14.01,2013-07-21 02:37:00,
2013-07-20 21:42:00,83.7,70.2,29.88,SE,145,0.0,3.0,64,0.00,,SKC,0.00,VWS V14.01,2013-07-21 02:42:00,
2013-07-20 21:47:00,83.5,70.5,29.89,SE,145,3.0,4.0,65,0.00,,SKC,0.00,VWS V14.01,2013-07-21 02:47:00,
2013-07-20 21:52:00,83.4,70.4,29.89,SE,145,0.0,5.0,65,0.00,,SKC,0.00,VWS V14.01,2013-07-21 02:52:00,
2013-07-20 21:58:00,83.2,71.1,29.89,SE,143,0.0,5.0,67,0.00,,SKC,0.00,VWS V14.01,2013-07-21 02:58:00,
2013-07-20 22:03:00,83.1,71.0,29.89,SE,143,0.0,0.0,67,0.00,,SKC,0.00,VWS V14.01,2013-07-21 03:03:00,
2013-07-20 22:08:00,82.9,71.3,29.89,SE,136,0.0,6.0,68,0.00,,SKC,0.00,VWS V14.01,2013-07-21 03:08:00,
2013-07-20 22:13:00,82.8,71.2,29.89,SE,136,2.0,8.0,68,0.00,,SKC,0.00,VWS V14.01,2013-07-21 03:13:00,
2013-07-20 22:18:00,82.6,71.4,29.90,SE,136,0.0,8.0,69,0.00,,SKC,0.00,VWS V14.01,2013-07-21 03:18:00,
2013-07-20 22:24:00,82.5,71.3,29.90,SE,136,2.0,8.0,69,0.00,,SKC,0.00,VWS V14.01,2013-07-21 03:24:00,
2013-07-20 22:29:00,82.4,71.2,29.90,SE,134,0.0,8.0,69,0.00,,SKC,0.00,VWS V14.01,2013-07-21 03:29:00,
2013-07-20 22:34:00,82.3,71.5,29.91,SE,145,1.0,6.0,70,0.00,,SKC,0.00,VWS V14.01,2013-07-21 03:34:00,
2013-07-20 22:39:00,82.2,71.4,29.91,SSE,148,0.0,12.0,70,0.00,,SKC,0.00,VWS V14.01,2013-07-21 03:39:00,
2013-07-20 22:44:00,82.1,71.3,29.91,SSE,150,0.0,12.0,70,0.00,,SKC,0.00,VWS V14.01,2013-07-21 03:44:00,
2013-07-20 22:49:00,82.0,71.7,29.91,SSE,150,3.0,12.0,71,0.00,,SKC,0.00,VWS V14.01,2013-07-21 03:49:00,
2013-07-20 22:54:00,81.9,71.6,29.91,SSE,148,6.0,12.0,71,0.00,,SKC,0.00,VWS V14.01,2013-07-21 03:54:00,
2013-07-20 22:59:00,81.8,71.5,29.91,SSE,148,1.0,12.0,71,0.00,,SKC,0.00,VWS V14.01,2013-07-21 03:59:00,
2013-07-20 23:01:00,81.7,71.4,29.92,SSE,148,6.0,12.0,71,0.00,,SKC,0.00,VWS V14.01,2013-07-21 04:01:00,
2013-07-20 23:06:00,81.6,71.7,29.92,SE,146,1.0,11.0,72,0.00,,SKC,0.00,VWS V14.01,2013-07-21 04:06:00,
2013-07-20 23:11:00,81.5,71.6,29.92,SE,146,3.0,11.0,72,0.00,,SKC,0.00,VWS V14.01,2013-07-21 04:11:00,
2013-07-20 23:16:00,81.4,71.5,29.92,SE,146,0.0,11.0,72,0.00,,SKC,0.00,VWS V14.01,2013-07-21 04:16:00,
2013-07-20 23:21:00,81.3,71.8,29.92,SE,146,3.0,11.0,73,0.00,,SKC,0.00,VWS V14.01,2013-07-21 04:21:00,
2013-07-20 23:26:00,81.2,71.7,29.92,SE,146,7.0,11.0,73,0.00,,SKC,0.00,VWS V14.01,2013-07-21 04:26:00,
2013-07-20 23:31:00,81.1,71.6,29.92,SE,146,2.0,11.0,73,0.00,,SKC,0.00,VWS V14.01,2013-07-21 04:31:00,
2013-07-20 23:36:00,81.1,72.0,29.92,SE,146,4.0,7.0,74,0.00,,SKC,0.00,VWS V14.01,2013-07-21 04:36:00,
2013-07-20 23:41:00,80.9,71.8,29.92,SE,146,2.0,7.0,74,0.00,,SKC,0.00,VWS V14.01,2013-07-21 04:41:00,
2013-07-20 23:46:00,80.8,71.7,29.92,SE,146,4.0,7.0,74,0.00,,SKC,0.00,VWS V14.01,2013-07-21 04:46:00,
2013-07-20 23:51:00,80.7,71.7,29.92,SE,146,2.0,7.0,74,0.00,,SKC,0.00,VWS V14.01,2013-07-21 04:51:00,
2013-07-20 23:56:00,80.6,71.9,29.92,SE,146,1.0,7.0,75,0.00,,SKC,0.00,VWS V14.01,2013-07-21 04:56:00,